Weather Service Report


852 
ASUS44 KMEG 030010
RWRMEG
MEMPHIS CWA HOURLY WEATHER ROUNDUP
NATIONAL WEATHER SERVICE MEMPHIS TN
700 PM CDT THU JUL 02 2015

...WEST TENNESSEE...
  
CITY           SKY/WX    TMP DP  RH WIND       PRES   REMARKS
MEMPHIS INTL   CLOUDY    85  70  60 SW14G22   29.85F                  
6HR MIN TEMP:  81; 6HR MAX TEMP:  87;                                

NWS MEMPHIS      N/A     85 N/A N/A MISG        N/A                   
JACKSON        CLOUDY    78  71  79 SW7       29.85F                  
6HR MIN TEMP:  78; 6HR MAX TEMP:  86; 6HR PCP:  0.02;                

LEXINGTON      CLOUDY    75  72  88 S6        29.87R                  
DYERSBURG        N/A    N/A N/A N/A MISG        N/A                   
PARIS          PTSUNNY   75  72  88 S8        29.86S                  


...EASTERN ARKANSAS...
  
CITY           SKY/WX    TMP DP  RH WIND       PRES   REMARKS
JONESBORO      CLOUDY    85  74  69 SW13      29.82R HX  92           
6HR MIN TEMP:  80; 6HR MAX TEMP:  88;                                

WEST MEMPHIS   CLOUDY    85  72  65 SW9       29.82F HX  91           
6HR MIN TEMP:  80; 6HR MAX TEMP:  88;                                

BATESVILLE     PTSUNNY   84  75  74 S6        29.82S HX  92           
6HR MIN TEMP:  84; 6HR MAX TEMP:  90;                                

NEWPORT        CLOUDY    87  74  65 W10G22    29.83R HX  95           
6HR MIN TEMP:  85; 6HR MAX TEMP:  92;                                

WALNUT RIDGE   PTSUNNY   82  75  78 CALM      29.81R                  
6HR MIN TEMP:  79; 6HR MAX TEMP:  86; 6HR PCP:  0.15;                

BLYTHEVILLE    PTSUNNY   80  74  81 S7        29.83S THUNDER          
6HR MIN TEMP:  80; 6HR MAX TEMP:  86;                                

SEARCY         PTSUNNY   86  73  65 SW7       29.85R HX  93           
6HR MIN TEMP:  86; 6HR MAX TEMP:  90;                                

STUTTGART      MOSUNNY   86  68  54 MISG      29.86S                  
6HR MIN TEMP:  86; 6HR MAX TEMP:  91;                                

PINE BLUFF     MOSUNNY   86  70  58 SW12      29.88F HX  90           
6HR MIN TEMP:  86; 6HR MAX TEMP:  91;                                

MONTICELLO     PTSUNNY   86  71  60 SW9       29.90F HX  91           
6HR MIN TEMP:  85; 6HR MAX TEMP:  91;                                



...NORTH MISSISSIPPI...
  
CITY           SKY/WX    TMP DP  RH WIND       PRES   REMARKS
TUPELO         MOSUNNY   83  73  72 W9        29.90F                  
6HR MIN TEMP:  80; 6HR MAX TEMP:  85;                                

OLIVE BRANCH   CLOUDY    82  73  74 SW12      29.86S                  
TUNICA         PTSUNNY   88  68  51 SW12G20   29.87S HX  91           
CLARKSDALE     PTSUNNY   86  73  66 SW14      29.89S HX  93           
CORINTH        PTSUNNY   81  70  69 S6        29.87F                  
GREENWOOD      PTSUNNY   83  72  69 SW10      29.92F                  
6HR MIN TEMP:  83; 6HR MAX TEMP:  87;                                

COLUMBUS       PTSUNNY   83  73  72 SW8       29.92F                  
6HR MIN TEMP:  83; 6HR MAX TEMP:  88;                                

STARKVILLE     FAIR      81  73  78 CALM      29.94F                  
GOLDEN TRIANGL PTSUNNY   82  72  69 SW9       29.94S                  


...SOUTHEAST MISSOURI...
  
CITY           SKY/WX    TMP DP  RH WIND       PRES   REMARKS
WEST PLAINS    PTSUNNY   80  72  76 N6        29.88S                  
6HR MIN TEMP:  80; 6HR MAX TEMP:  85;                                

POPLAR BLUFF   CLOUDY    81  73  76 E3        29.82R                  
6HR MIN TEMP:  81; 6HR MAX TEMP:  86;                                

CAPE GIRARDEAU PTSUNNY   79  71  76 N8        29.83R                  
6HR MIN TEMP:  76; 6HR MAX TEMP:  83; 6HR PCP:  0.05;                



...NORTHWEST ALABAMA...
  
CITY           SKY/WX    TMP DP  RH WIND       PRES   REMARKS
MUSCLE SHOALS  PTSUNNY   82  69  64 W10       29.92R                  
6HR MIN TEMP:  82; 6HR MAX TEMP:  88;                                



...MIDDLE TENNESSEE...
  
CITY           SKY/WX    TMP DP  RH WIND       PRES   REMARKS
NASHVILLE      RAIN      77  74  90 S6        29.86R                  
6HR MIN TEMP:  77; 6HR MAX TEMP:  84; 6HR PCP:  0.05;                

CLARKSVILLE    CLOUDY    77  73  87 S3        29.83F                  
6HR MIN TEMP:  74; 6HR MAX TEMP:  84; 6HR PCP:  0.15;                

COLUMBIA       PTSUNNY   79  72  78 SW8       29.87S                  


...WESTERN KENTUCKY...
  
CITY           SKY/WX    TMP DP  RH WIND       PRES   REMARKS
PADUCAH        PTSUNNY   82  71  69 N7        29.82S                  
6HR MIN TEMP:  82; 6HR MAX TEMP:  87;                                

FORT CAMPBELL  CLOUDY    78  73  85 SW7       29.83S                  
6HR MIN TEMP:  74; 6HR MAX TEMP:  84; 6HR PCP:  0.19;                



...CENTRAL ARKANSAS...
  
CITY           SKY/WX    TMP DP  RH WIND       PRES   REMARKS
LITTLE ROCK    CLOUDY    87  67  51 SW13      29.86S HX  90           
6HR MIN TEMP:  87; 6HR MAX TEMP:  92;                                



SKY/WX REPORTED AS FAIR MEANS FEW OR NO CLOUDS BELOW
12 THOUSAND FEET.



855 
ASUS44 KMEG 030010
RWRTN 
TENNESSEE HOURLY STATE WEATHER ROUNDUP
NATIONAL WEATHER SERVICE MEMPHIS TN
700 PM CDT THU JUL 02 2015

TNZ002-004-019-021-049-052-054-088>092-030100-
WEST TENNESSEE
  
CITY           SKY/WX    TMP DP  RH WIND       PRES   REMARKS
MEMPHIS INTL   CLOUDY    85  70  60 SW14G22   29.85F                  
NWS MEMPHIS      N/A     85 N/A N/A MISG        N/A                   
JACKSON        CLOUDY    78  71  79 SW7       29.85F                  
DYERSBURG        N/A    N/A N/A N/A MISG        N/A                   
PARIS          PTSUNNY   75  72  88 S8        29.86S                  
LEXINGTON      CLOUDY    75  72  88 S6        29.87R                  
$$

TNZ008-025-027-028-033-062-065-066-030100-
NORTH MIDDLE TENNESSEE
  
CITY           SKY/WX    TMP DP  RH WIND       PRES   REMARKS
NASHVILLE      RAIN      77  74  90 S6        29.86R                  
CLARKSVILLE    CLOUDY    77  73  87 S3        29.83F                  
SMYRNA         PTSUNNY   80  73  79 SW5       29.86S                  
COOKEVILLE     PTSUNNY   77  73  88 SW3       29.89R                  
CROSSVILLE     CLOUDY    74  68  81 S3        29.95R                  
$$

TNZ061-075-076-078-094-096-097-030100-
SOUTH MIDDLE TENNESSEE
  
CITY           SKY/WX    TMP DP  RH WIND       PRES   REMARKS
FAYETTEVILLE   PTSUNNY   77  66  69 W12       29.92R                  
TULLAHOMA      MOSUNNY   75  68  78 SW9       29.92R                  
WINCHESTER     SUNNY     79  68  69 SW9       29.91S                  
MCMINNVILLE    CLOUDY    77  73  88 SW5       29.91R                  
COLUMBIA       PTSUNNY   79  72  78 SW8       29.87S                  
SHELBYVILLE    PTSUNNY  N/A N/A N/A MISG        N/A                   
$$

TNZ017-018-042-046-047-030100-
NORTHEAST TENNESSEE
  
CITY           SKY/WX    TMP DP  RH WIND       PRES   REMARKS
TRI CITIES     CLOUDY    73  65  75 SW7       29.95S                  
ELIZABETHTON   MOCLDY    72  64  78 CALM      29.96S                  
$$

TNZ012-013-036-069-073-074-030100-
CENTRAL EAST TENNESSEE
  
CITY           SKY/WX    TMP DP  RH WIND       PRES   REMARKS
KNOXVILLE      CLOUDY    77  68  73 S8        29.90F                  
OAK RIDGE      MOCLDY    77  68  73 S3        29.91F                  
GATLINBURG     PTCLDY    77  66  69 W3        29.91F                  
MORRISTOWN     PTCLDY    73  70  88 CALM      29.94S                  
$$

TNZ083-085-099-030100-
SOUTHEAST TENNESSEE
  
CITY           SKY/WX    TMP DP  RH WIND       PRES   REMARKS
CHATTANOOGA    TSTM      73  71  93 S12G21    29.90F VSB 1/2          
$$

SKY/WX REPORTED AS FAIR MEANS FEW OR NO CLOUDS BELOW
12 THOUSAND FEET.


Return to Home page


Western Regional Climate Center, wrcc@dri.edu